owner,sensor,date,latitude,longitude,vertical_datum,mass_concentration_of_oxygen_in_sea_water,qcFlag 
DISL,ioos:station:DISL:PPTA:1,2019-08-01T00:00:00Z,30.2791,-87.5561,1.266,0.0,11111222 
DISL,ioos:station:DISL:PPTA:1,2019-08-01T01:00:00Z,30.2791,-87.5561,1.225,0.0,11111222 
DISL,ioos:station:DISL:PPTA:1,2019-08-01T02:00:00Z,30.2791,-87.5561,1.238,0.0,11111222 
DISL,ioos:station:DISL:PPTA:1,2019-08-01T03:00:00Z,30.2791,-87.5561,1.211,0.0,11111222 
DISL,ioos:station:DISL:PPTA:1,2019-08-01T04:00:00Z,30.2791,-87.5561,1.245,0.0,11111222 
DISL,ioos:station:DISL:PPTA:1,2019-08-01T05:00:00Z,30.2791,-87.5561,1.256,0.0,11111222 
DISL,ioos:station:DISL:PPTA:1,2019-08-01T06:00:00Z,30.2791,-87.5561,1.284,0.0,11111222 
DISL,ioos:station:DISL:PPTA:1,2019-08-01T07:00:00Z,30.2791,-87.5561,1.296,0.0,11111222 
DISL,ioos:station:DISL:PPTA:1,2019-08-01T08:00:00Z,30.2791,-87.5561,1.299,0.0,11111222 
DISL,ioos:station:DISL:PPTA:1,2019-08-01T09:00:00Z,30.2791,-87.5561,1.343,0.0,11111222 
DISL,ioos:station:DISL:PPTA:1,2019-08-01T10:00:00Z,30.2791,-87.5561,1.381,0.0,11111222 
DISL,ioos:station:DISL:PPTA:1,2019-08-01T11:00:00Z,30.2791,-87.5561,1.426,0.0,11111222 
DISL,ioos:station:DISL:PPTA:1,2019-08-01T12:00:00Z,30.2791,-87.5561,1.485,0.0,11111222 
DISL,ioos:station:DISL:PPTA:1,2019-08-01T13:00:00Z,30.2791,-87.5561,1.545,0.0,11111222 
DISL,ioos:station:DISL:PPTA:1,2019-08-01T14:00:00Z,30.2791,-87.5561,1.569,0.0,11111222 
DISL,ioos:station:DISL:PPTA:1,2019-08-01T15:00:00Z,30.2791,-87.5561,1.576,0.0,11111222 
DISL,ioos:station:DISL:PPTA:1,2019-08-01T16:00:00Z,30.2791,-87.5561,1.592,0.0,11111222 
DISL,ioos:station:DISL:PPTA:1,2019-08-01T17:00:00Z,30.2791,-87.5561,1.597,0.0,11111222 
DISL,ioos:station:DISL:PPTA:1,2019-08-01T18:00:00Z,30.2791,-87.5561,1.557,0.0,11111222 
DISL,ioos:station:DISL:PPTA:1,2019-08-01T19:00:00Z,30.2791,-87.5561,1.498,0.0,11111222 
DISL,ioos:station:DISL:PPTA:1,2019-08-01T20:00:00Z,30.2791,-87.5561,1.432,0.0,11111222 
DISL,ioos:station:DISL:PPTA:1,2019-08-01T21:00:00Z,30.2791,-87.5561,1.385,0.0,11111222 
DISL,ioos:station:DISL:PPTA:1,2019-08-01T22:00:00Z,30.2791,-87.5561,1.351,0.0,11111222 
DISL,ioos:station:DISL:PPTA:1,2019-08-01T23:00:00Z,30.2791,-87.5561,1.317,0.0,11111222 
DISL,ioos:station:DISL:PPTA:1,2019-08-02T00:00:00Z,30.2791,-87.5561,1.313,0.0,11111222 
DISL,ioos:station:DISL:PPTA:1,2019-08-02T01:00:00Z,30.2791,-87.5561,1.288,0.0,11111222 
DISL,ioos:station:DISL:PPTA:1,2019-08-02T02:00:00Z,30.2791,-87.5561,1.267,0.0,11111222 
DISL,ioos:station:DISL:PPTA:1,2019-08-02T03:00:00Z,30.2791,-87.5561,1.253,0.0,11111222 
DISL,ioos:station:DISL:PPTA:1,2019-08-02T04:00:00Z,30.2791,-87.5561,1.234,0.0,11111222 
DISL,ioos:station:DISL:PPTA:1,2019-08-02T05:00:00Z,30.2791,-87.5561,1.288,0.0,11111222 
DISL,ioos:station:DISL:PPTA:1,2019-08-02T06:00:00Z,30.2791,-87.5561,1.277,0.0,11111222 
DISL,ioos:station:DISL:PPTA:1,2019-08-02T07:00:00Z,30.2791,-87.5561,1.313,0.0,11111222 
DISL,ioos:station:DISL:PPTA:1,2019-08-02T08:00:00Z,30.2791,-87.5561,1.353,0.0,11111222 
DISL,ioos:station:DISL:PPTA:1,2019-08-02T09:00:00Z,30.2791,-87.5561,1.333,0.0,11111222 
DISL,ioos:station:DISL:PPTA:1,2019-08-02T10:00:00Z,30.2791,-87.5561,1.378,0.0,11111222 
DISL,ioos:station:DISL:PPTA:1,2019-08-02T11:00:00Z,30.2791,-87.5561,1.436,0.0,11111222 
DISL,ioos:station:DISL:PPTA:1,2019-08-02T12:00:00Z,30.2791,-87.5561,1.485,0.0,11111222 
DISL,ioos:station:DISL:PPTA:1,2019-08-02T13:00:00Z,30.2791,-87.5561,1.54,0.0,11111222 
DISL,ioos:station:DISL:PPTA:1,2019-08-02T14:00:00Z,30.2791,-87.5561,1.566,0.0,11111222 
DISL,ioos:station:DISL:PPTA:1,2019-08-02T15:00:00Z,30.2791,-87.5561,1.542,0.0,11111222 
DISL,ioos:station:DISL:PPTA:1,2019-08-02T16:00:00Z,30.2791,-87.5561,1.6,0.0,11111222 
DISL,ioos:station:DISL:PPTA:1,2019-08-02T17:00:00Z,30.2791,-87.5561,1.616,0.0,11111222 
DISL,ioos:station:DISL:PPTA:1,2019-08-02T18:00:00Z,30.2791,-87.5561,1.637,0.0,11111222 
DISL,ioos:station:DISL:PPTA:1,2019-08-02T19:00:00Z,30.2791,-87.5561,1.58,0.0,11111222 
DISL,ioos:station:DISL:PPTA:1,2019-08-02T20:00:00Z,30.2791,-87.5561,1.49,0.0,11111222 
DISL,ioos:station:DISL:PPTA:1,2019-08-02T21:00:00Z,30.2791,-87.5561,1.459,0.0,11111222 
DISL,ioos:station:DISL:PPTA:1,2019-08-02T22:00:00Z,30.2791,-87.5561,1.433,0.0,11111222 
DISL,ioos:station:DISL:PPTA:1,2019-08-02T23:00:00Z,30.2791,-87.5561,1.385,0.0,11111222 
DISL,ioos:station:DISL:PPTA:1,2019-08-03T00:00:00Z,30.2791,-87.5561,1.372,0.0,11111222 
DISL,ioos:station:DISL:PPTA:1,2019-08-03T01:00:00Z,30.2791,-87.5561,1.367,0.0,11111222 
DISL,ioos:station:DISL:PPTA:1,2019-08-03T02:00:00Z,30.2791,-87.5561,1.326,0.0,11111222 
DISL,ioos:station:DISL:PPTA:1,2019-08-03T03:00:00Z,30.2791,-87.5561,1.314,0.0,11111222 
DISL,ioos:station:DISL:PPTA:1,2019-08-03T04:00:00Z,30.2791,-87.5561,1.296,0.0,11111222 
DISL,ioos:station:DISL:PPTA:1,2019-08-03T05:00:00Z,30.2791,-87.5561,1.309,0.0,11111222 
DISL,ioos:station:DISL:PPTA:1,2019-08-03T06:00:00Z,30.2791,-87.5561,1.35,0.0,11111222 
DISL,ioos:station:DISL:PPTA:1,2019-08-03T07:00:00Z,30.2791,-87.5561,1.346,0.0,11111222 
DISL,ioos:station:DISL:PPTA:1,2019-08-03T08:00:00Z,30.2791,-87.5561,1.352,0.0,11111222 
DISL,ioos:station:DISL:PPTA:1,2019-08-03T09:00:00Z,30.2791,-87.5561,1.362,0.0,11111222 
DISL,ioos:station:DISL:PPTA:1,2019-08-03T09:30:00Z,30.2791,-87.5561,1.39,0.0,11111222 
DISL,ioos:station:DISL:PPTA:1,2019-08-03T11:00:00Z,30.2791,-87.5561,1.417,0.0,11111222 
DISL,ioos:station:DISL:PPTA:1,2019-08-03T12:00:00Z,30.2791,-87.5561,1.457,0.0,11111222 
DISL,ioos:station:DISL:PPTA:1,2019-08-03T13:00:00Z,30.2791,-87.5561,1.507,0.0,11111222 
DISL,ioos:station:DISL:PPTA:1,2019-08-03T14:00:00Z,30.2791,-87.5561,1.553,0.0,11111222 
DISL,ioos:station:DISL:PPTA:1,2019-08-03T15:00:00Z,30.2791,-87.5561,1.568,0.0,11111222 
DISL,ioos:station:DISL:PPTA:1,2019-08-03T16:00:00Z,30.2791,-87.5561,1.59,0.0,11111222 
DISL,ioos:station:DISL:PPTA:1,2019-08-03T17:00:00Z,30.2791,-87.5561,1.604,0.0,11111222 
DISL,ioos:station:DISL:PPTA:1,2019-08-03T18:00:00Z,30.2791,-87.5561,1.618,0.0,11111222 
DISL,ioos:station:DISL:PPTA:1,2019-08-03T19:00:00Z,30.2791,-87.5561,1.602,0.0,11111222 
DISL,ioos:station:DISL:PPTA:1,2019-08-03T20:00:00Z,30.2791,-87.5561,1.581,0.0,11111222 
DISL,ioos:station:DISL:PPTA:1,2019-08-03T21:00:00Z,30.2791,-87.5561,1.504,0.0,11111222 
DISL,ioos:station:DISL:PPTA:1,2019-08-03T22:00:00Z,30.2791,-87.5561,1.486,0.0,11111222 
DISL,ioos:station:DISL:PPTA:1,2019-08-03T23:00:00Z,30.2791,-87.5561,1.455,0.0,11111222 
DISL,ioos:station:DISL:PPTA:1,2019-08-04T00:00:00Z,30.2791,-87.5561,1.464,0.0,11111222 
DISL,ioos:station:DISL:PPTA:1,2019-08-04T01:00:00Z,30.2791,-87.5561,1.422,0.0,11111222 
DISL,ioos:station:DISL:PPTA:1,2019-08-04T02:00:00Z,30.2791,-87.5561,1.411,0.0,11111222 
DISL,ioos:station:DISL:PPTA:1,2019-08-04T03:00:00Z,30.2791,-87.5561,1.4,0.0,11111222 
DISL,ioos:station:DISL:PPTA:1,2019-08-04T04:00:00Z,30.2791,-87.5561,1.388,0.0,11111222 
DISL,ioos:station:DISL:PPTA:1,2019-08-04T05:00:00Z,30.2791,-87.5561,1.372,0.0,11111222 
DISL,ioos:station:DISL:PPTA:1,2019-08-04T06:00:00Z,30.2791,-87.5561,1.408,0.0,11111222 
DISL,ioos:station:DISL:PPTA:1,2019-08-04T07:00:00Z,30.2791,-87.5561,1.404,0.0,11111222 
DISL,ioos:station:DISL:PPTA:1,2019-08-04T08:00:00Z,30.2791,-87.5561,1.405,0.0,11111222 
DISL,ioos:station:DISL:PPTA:1,2019-08-04T09:00:00Z,30.2791,-87.5561,1.39,0.0,11111222 
DISL,ioos:station:DISL:PPTA:1,2019-08-04T10:00:00Z,30.2791,-87.5561,1.395,0.0,11111222 
DISL,ioos:station:DISL:PPTA:1,2019-08-04T11:00:00Z,30.2791,-87.5561,1.414,0.0,11111222 
DISL,ioos:station:DISL:PPTA:1,2019-08-04T12:00:00Z,30.2791,-87.5561,1.448,0.0,11111222 
DISL,ioos:station:DISL:PPTA:1,2019-08-04T13:00:00Z,30.2791,-87.5561,1.458,0.0,11111222 
DISL,ioos:station:DISL:PPTA:1,2019-08-04T14:00:00Z,30.2791,-87.5561,1.486,0.0,11111222 
DISL,ioos:station:DISL:PPTA:1,2019-08-04T15:00:00Z,30.2791,-87.5561,1.513,0.0,11111222 
DISL,ioos:station:DISL:PPTA:1,2019-08-04T16:00:00Z,30.2791,-87.5561,1.549,0.0,11111222 
DISL,ioos:station:DISL:PPTA:1,2019-08-04T17:00:00Z,30.2791,-87.5561,1.565,0.0,11111222 
DISL,ioos:station:DISL:PPTA:1,2019-08-04T18:00:00Z,30.2791,-87.5561,1.552,0.0,11111222 
DISL,ioos:station:DISL:PPTA:1,2019-08-04T19:00:00Z,30.2791,-87.5561,1.549,0.0,11111222 
DISL,ioos:station:DISL:PPTA:1,2019-08-04T20:00:00Z,30.2791,-87.5561,1.57,0.0,11111222 
DISL,ioos:station:DISL:PPTA:1,2019-08-04T21:00:00Z,30.2791,-87.5561,1.519,0.0,11111222 
DISL,ioos:station:DISL:PPTA:1,2019-08-04T22:00:00Z,30.2791,-87.5561,1.474,0.0,11111222 
DISL,ioos:station:DISL:PPTA:1,2019-08-04T23:00:00Z,30.2791,-87.5561,1.465,0.0,11111222 
DISL,ioos:station:DISL:PPTA:1,2019-08-05T00:00:00Z,30.2791,-87.5561,1.444,0.0,11111222 
DISL,ioos:station:DISL:PPTA:1,2019-08-05T01:00:00Z,30.2791,-87.5561,1.443,0.0,11111222 
DISL,ioos:station:DISL:PPTA:1,2019-08-05T02:00:00Z,30.2791,-87.5561,1.418,0.0,11111222 
DISL,ioos:station:DISL:PPTA:1,2019-08-05T03:00:00Z,30.2791,-87.5561,1.433,0.0,11111222 
DISL,ioos:station:DISL:PPTA:1,2019-08-05T04:00:00Z,30.2791,-87.5561,1.447,0.0,11111222 
DISL,ioos:station:DISL:PPTA:1,2019-08-05T05:00:00Z,30.2791,-87.5561,1.435,0.0,11111222 
DISL,ioos:station:DISL:PPTA:1,2019-08-05T06:00:00Z,30.2791,-87.5561,1.426,0.0,11111222 
DISL,ioos:station:DISL:PPTA:1,2019-08-05T07:00:00Z,30.2791,-87.5561,1.44,0.0,11111222 
DISL,ioos:station:DISL:PPTA:1,2019-08-05T08:00:00Z,30.2791,-87.5561,1.461,0.0,11111222 
DISL,ioos:station:DISL:PPTA:1,2019-08-05T09:00:00Z,30.2791,-87.5561,1.45,0.0,11111222 
DISL,ioos:station:DISL:PPTA:1,2019-08-05T10:00:00Z,30.2791,-87.5561,1.452,0.0,11111222 
DISL,ioos:station:DISL:PPTA:1,2019-08-05T11:00:00Z,30.2791,-87.5561,1.427,0.0,11111222 
DISL,ioos:station:DISL:PPTA:1,2019-08-05T12:00:00Z,30.2791,-87.5561,1.471,0.0,11111222 
DISL,ioos:station:DISL:PPTA:1,2019-08-05T13:00:00Z,30.2791,-87.5561,1.42,0.0,11111222 
DISL,ioos:station:DISL:PPTA:1,2019-08-05T14:00:00Z,30.2791,-87.5561,1.481,0.0,11111222 
DISL,ioos:station:DISL:PPTA:1,2019-08-05T15:00:00Z,30.2791,-87.5561,1.49,0.0,11111222 
DISL,ioos:station:DISL:PPTA:1,2019-08-05T16:00:00Z,30.2791,-87.5561,1.466,0.0,11111222 
DISL,ioos:station:DISL:PPTA:1,2019-08-05T17:00:00Z,30.2791,-87.5561,1.497,0.0,11111222 
DISL,ioos:station:DISL:PPTA:1,2019-08-05T18:00:00Z,30.2791,-87.5561,1.486,0.0,11111222 
DISL,ioos:station:DISL:PPTA:1,2019-08-05T19:00:00Z,30.2791,-87.5561,1.48,0.0,11111222 
DISL,ioos:station:DISL:PPTA:1,2019-08-05T20:00:00Z,30.2791,-87.5561,1.421,0.0,11111222 
DISL,ioos:station:DISL:PPTA:1,2019-08-05T21:00:00Z,30.2791,-87.5561,1.458,0.0,11111222 
DISL,ioos:station:DISL:PPTA:1,2019-08-05T22:00:00Z,30.2791,-87.5561,1.476,0.0,11111222 
DISL,ioos:station:DISL:PPTA:1,2019-08-05T23:00:00Z,30.2791,-87.5561,1.414,0.0,11111222 
DISL,ioos:station:DISL:PPTA:1,2019-08-06T00:00:00Z,30.2791,-87.5561,1.383,0.0,11111222 
DISL,ioos:station:DISL:PPTA:1,2019-08-06T01:00:00Z,30.2791,-87.5561,1.415,0.0,11111222 
DISL,ioos:station:DISL:PPTA:1,2019-08-06T02:00:00Z,30.2791,-87.5561,1.413,0.0,11111222 
DISL,ioos:station:DISL:PPTA:1,2019-08-06T03:00:00Z,30.2791,-87.5561,1.417,0.0,11111222 
DISL,ioos:station:DISL:PPTA:1,2019-08-06T04:00:00Z,30.2791,-87.5561,1.437,0.0,11111222 
DISL,ioos:station:DISL:PPTA:1,2019-08-06T05:00:00Z,30.2791,-87.5561,1.442,0.0,11111222 
DISL,ioos:station:DISL:PPTA:1,2019-08-06T06:00:00Z,30.2791,-87.5561,1.425,0.0,11111222 
DISL,ioos:station:DISL:PPTA:1,2019-08-06T07:00:00Z,30.2791,-87.5561,1.439,0.0,11111222 
DISL,ioos:station:DISL:PPTA:1,2019-08-06T08:00:00Z,30.2791,-87.5561,1.421,0.0,11111222 
DISL,ioos:station:DISL:PPTA:1,2019-08-06T09:00:00Z,30.2791,-87.5561,1.455,0.0,11111222 
DISL,ioos:station:DISL:PPTA:1,2019-08-06T10:00:00Z,30.2791,-87.5561,1.461,0.0,11111222 
DISL,ioos:station:DISL:PPTA:1,2019-08-06T11:00:00Z,30.2791,-87.5561,1.408,0.0,11111222 
DISL,ioos:station:DISL:PPTA:1,2019-08-06T12:00:00Z,30.2791,-87.5561,1.398,0.0,11111222 
DISL,ioos:station:DISL:PPTA:1,2019-08-06T13:00:00Z,30.2791,-87.5561,1.393,0.0,11111222 
DISL,ioos:station:DISL:PPTA:1,2019-08-06T14:00:00Z,30.2791,-87.5561,1.395,0.0,11111222 
DISL,ioos:station:DISL:PPTA:1,2019-08-06T15:00:00Z,30.2791,-87.5561,1.388,0.0,11111222 
DISL,ioos:station:DISL:PPTA:1,2019-08-06T16:00:00Z,30.2791,-87.5561,1.401,0.0,11111222 
DISL,ioos:station:DISL:PPTA:1,2019-08-06T17:00:00Z,30.2791,-87.5561,1.397,0.0,11111222 
DISL,ioos:station:DISL:PPTA:1,2019-08-06T18:00:00Z,30.2791,-87.5561,1.388,0.0,11111222 
DISL,ioos:station:DISL:PPTA:1,2019-08-06T19:00:00Z,30.2791,-87.5561,1.373,0.0,11111222 
DISL,ioos:station:DISL:PPTA:1,2019-08-06T20:00:00Z,30.2791,-87.5561,1.333,0.0,11111222 
DISL,ioos:station:DISL:PPTA:1,2019-08-06T21:00:00Z,30.2791,-87.5561,1.356,0.0,11111222 
DISL,ioos:station:DISL:PPTA:1,2019-08-06T22:00:00Z,30.2791,-87.5561,1.354,0.0,11111222 
DISL,ioos:station:DISL:PPTA:1,2019-08-06T23:00:00Z,30.2791,-87.5561,1.377,0.0,11111222 
DISL,ioos:station:DISL:PPTA:1,2019-08-07T00:00:00Z,30.2791,-87.5561,1.372,0.0,11111222 
DISL,ioos:station:DISL:PPTA:1,2019-08-07T01:00:00Z,30.2791,-87.5561,1.352,0.0,11111222 
DISL,ioos:station:DISL:PPTA:1,2019-08-07T02:00:00Z,30.2791,-87.5561,1.375,0.0,11111222 
DISL,ioos:station:DISL:PPTA:1,2019-08-07T03:00:00Z,30.2791,-87.5561,1.377,0.0,11111222 
DISL,ioos:station:DISL:PPTA:1,2019-08-07T04:00:00Z,30.2791,-87.5561,1.405,0.0,11111222 
DISL,ioos:station:DISL:PPTA:1,2019-08-07T05:00:00Z,30.2791,-87.5561,1.423,0.0,11111222 
DISL,ioos:station:DISL:PPTA:1,2019-08-07T06:00:00Z,30.2791,-87.5561,1.451,0.0,11111222 
DISL,ioos:station:DISL:PPTA:1,2019-08-07T07:00:00Z,30.2791,-87.5561,1.456,0.0,11111222 
DISL,ioos:station:DISL:PPTA:1,2019-08-07T08:00:00Z,30.2791,-87.5561,1.445,0.0,11111222 
DISL,ioos:station:DISL:PPTA:1,2019-08-07T09:00:00Z,30.2791,-87.5561,1.465,0.0,11111222 
DISL,ioos:station:DISL:PPTA:1,2019-08-07T10:00:00Z,30.2791,-87.5561,1.475,0.0,11111222 
DISL,ioos:station:DISL:PPTA:1,2019-08-07T11:00:00Z,30.2791,-87.5561,1.47,0.0,11111222 
DISL,ioos:station:DISL:PPTA:1,2019-08-07T12:00:00Z,30.2791,-87.5561,1.439,0.0,11111222 
DISL,ioos:station:DISL:PPTA:1,2019-08-07T13:00:00Z,30.2791,-87.5561,1.414,0.0,11111222 
DISL,ioos:station:DISL:PPTA:1,2019-08-07T14:00:00Z,30.2791,-87.5561,1.389,0.0,11111222 
DISL,ioos:station:DISL:PPTA:1,2019-08-07T15:00:00Z,30.2791,-87.5561,1.384,0.0,11111222 
DISL,ioos:station:DISL:PPTA:1,2019-08-07T16:00:00Z,30.2791,-87.5561,1.347,0.0,11111222 
DISL,ioos:station:DISL:PPTA:1,2019-08-07T17:00:00Z,30.2791,-87.5561,1.321,0.0,11111222 
DISL,ioos:station:DISL:PPTA:1,2019-08-07T18:00:00Z,30.2791,-87.5561,1.315,0.0,11111222 
DISL,ioos:station:DISL:PPTA:1,2019-08-07T19:00:00Z,30.2791,-87.5561,1.29,0.0,11111222 
DISL,ioos:station:DISL:PPTA:1,2019-08-07T20:00:00Z,30.2791,-87.5561,1.282,0.0,11111222 
DISL,ioos:station:DISL:PPTA:1,2019-08-07T21:00:00Z,30.2791,-87.5561,1.265,0.0,11111222 
DISL,ioos:station:DISL:PPTA:1,2019-08-07T22:00:00Z,30.2791,-87.5561,1.269,0.0,11111222 
DISL,ioos:station:DISL:PPTA:1,2019-08-07T23:00:00Z,30.2791,-87.5561,1.296,0.0,11111222 
DISL,ioos:station:DISL:PPTA:1,2019-08-08T00:00:00Z,30.2791,-87.5561,1.288,0.0,11111222 
DISL,ioos:station:DISL:PPTA:1,2019-08-08T01:00:00Z,30.2791,-87.5561,1.273,0.0,11111222 
DISL,ioos:station:DISL:PPTA:1,2019-08-08T02:00:00Z,30.2791,-87.5561,1.288,0.0,11111222 
DISL,ioos:station:DISL:PPTA:1,2019-08-08T03:00:00Z,30.2791,-87.5561,1.314,0.0,11111222 
DISL,ioos:station:DISL:PPTA:1,2019-08-08T04:00:00Z,30.2791,-87.5561,1.347,0.0,11111222 
DISL,ioos:station:DISL:PPTA:1,2019-08-08T05:00:00Z,30.2791,-87.5561,1.352,0.0,11111222 
DISL,ioos:station:DISL:PPTA:1,2019-08-08T06:00:00Z,30.2791,-87.5561,1.394,0.0,11111222 
DISL,ioos:station:DISL:PPTA:1,2019-08-08T07:00:00Z,30.2791,-87.5561,1.429,0.0,11111222 
DISL,ioos:station:DISL:PPTA:1,2019-08-08T08:00:00Z,30.2791,-87.5561,1.43,0.0,11111222 
DISL,ioos:station:DISL:PPTA:1,2019-08-08T09:00:00Z,30.2791,-87.5561,1.447,0.0,11111222 
DISL,ioos:station:DISL:PPTA:1,2019-08-08T10:00:00Z,30.2791,-87.5561,1.451,0.0,11111222 
DISL,ioos:station:DISL:PPTA:1,2019-08-08T11:00:00Z,30.2791,-87.5561,1.447,0.0,11111222 
DISL,ioos:station:DISL:PPTA:1,2019-08-08T12:00:00Z,30.2791,-87.5561,1.433,0.0,11111222 
DISL,ioos:station:DISL:PPTA:1,2019-08-08T13:00:00Z,30.2791,-87.5561,1.4,0.0,11111222 
DISL,ioos:station:DISL:PPTA:1,2019-08-08T14:00:00Z,30.2791,-87.5561,1.361,0.0,11111222 
DISL,ioos:station:DISL:PPTA:1,2019-08-08T15:00:00Z,30.2791,-87.5561,1.34,0.0,11111222 
DISL,ioos:station:DISL:PPTA:1,2019-08-08T16:00:00Z,30.2791,-87.5561,1.326,0.0,11111222 
DISL,ioos:station:DISL:PPTA:1,2019-08-08T17:00:00Z,30.2791,-87.5561,1.277,0.0,11111222 
DISL,ioos:station:DISL:PPTA:1,2019-08-08T18:00:00Z,30.2791,-87.5561,1.283,0.0,11111222 
DISL,ioos:station:DISL:PPTA:1,2019-08-08T19:00:00Z,30.2791,-87.5561,1.237,0.0,11111222 
DISL,ioos:station:DISL:PPTA:1,2019-08-08T20:00:00Z,30.2791,-87.5561,1.181,0.0,11111222 
DISL,ioos:station:DISL:PPTA:1,2019-08-08T21:00:00Z,30.2791,-87.5561,1.184,0.0,11111222 
DISL,ioos:station:DISL:PPTA:1,2019-08-08T22:00:00Z,30.2791,-87.5561,1.179,0.0,11111222 
DISL,ioos:station:DISL:PPTA:1,2019-08-08T23:00:00Z,30.2791,-87.5561,1.226,0.0,11111222 
DISL,ioos:station:DISL:PPTA:1,2019-08-09T00:00:00Z,30.2791,-87.5561,1.204,0.0,11111222 
DISL,ioos:station:DISL:PPTA:1,2019-08-09T01:00:00Z,30.2791,-87.5561,1.219,0.0,11111222 
DISL,ioos:station:DISL:PPTA:1,2019-08-09T02:00:00Z,30.2791,-87.5561,1.216,0.0,11111222 
DISL,ioos:station:DISL:PPTA:1,2019-08-09T03:00:00Z,30.2791,-87.5561,1.243,0.0,11111222 
DISL,ioos:station:DISL:PPTA:1,2019-08-09T04:00:00Z,30.2791,-87.5561,1.281,0.0,11111222 
DISL,ioos:station:DISL:PPTA:1,2019-08-09T05:00:00Z,30.2791,-87.5561,1.316,0.0,11111222 
DISL,ioos:station:DISL:PPTA:1,2019-08-09T06:00:00Z,30.2791,-87.5561,1.35,0.0,11111222 
DISL,ioos:station:DISL:PPTA:1,2019-08-09T07:00:00Z,30.2791,-87.5561,1.381,0.0,11111222 
DISL,ioos:station:DISL:PPTA:1,2019-08-09T08:00:00Z,30.2791,-87.5561,1.413,0.0,11111222 
DISL,ioos:station:DISL:PPTA:1,2019-08-09T09:00:00Z,30.2791,-87.5561,1.426,0.0,11111222 
DISL,ioos:station:DISL:PPTA:1,2019-08-09T10:00:00Z,30.2791,-87.5561,1.428,0.0,11111222 
DISL,ioos:station:DISL:PPTA:1,2019-08-09T11:00:00Z,30.2791,-87.5561,1.432,0.0,11111222 
DISL,ioos:station:DISL:PPTA:1,2019-08-09T12:00:00Z,30.2791,-87.5561,1.456,0.0,11111222 
DISL,ioos:station:DISL:PPTA:1,2019-08-09T13:00:00Z,30.2791,-87.5561,1.45,0.0,11111222 
DISL,ioos:station:DISL:PPTA:1,2019-08-09T14:00:00Z,30.2791,-87.5561,1.402,0.0,11111222 
DISL,ioos:station:DISL:PPTA:1,2019-08-09T15:00:00Z,30.2791,-87.5561,1.377,0.0,11111222 
DISL,ioos:station:DISL:PPTA:1,2019-08-09T16:00:00Z,30.2791,-87.5561,1.32,0.0,11111222 
DISL,ioos:station:DISL:PPTA:1,2019-08-09T17:00:00Z,30.2791,-87.5561,1.302,0.0,11111222 
DISL,ioos:station:DISL:PPTA:1,2019-08-09T18:00:00Z,30.2791,-87.5561,1.267,0.0,11111222 
DISL,ioos:station:DISL:PPTA:1,2019-08-09T19:00:00Z,30.2791,-87.5561,1.216,0.0,11111222 
DISL,ioos:station:DISL:PPTA:1,2019-08-09T20:00:00Z,30.2791,-87.5561,1.182,0.0,11111222 
DISL,ioos:station:DISL:PPTA:1,2019-08-09T21:00:00Z,30.2791,-87.5561,1.17,0.0,11111222 
DISL,ioos:station:DISL:PPTA:1,2019-08-09T22:00:00Z,30.2791,-87.5561,1.158,0.0,11111222 
DISL,ioos:station:DISL:PPTA:1,2019-08-09T23:00:00Z,30.2791,-87.5561,1.154,0.0,11111222 
DISL,ioos:station:DISL:PPTA:1,2019-08-10T00:00:00Z,30.2791,-87.5561,1.156,0.0,11111222 
DISL,ioos:station:DISL:PPTA:1,2019-08-10T01:00:00Z,30.2791,-87.5561,1.201,0.0,11111222 
DISL,ioos:station:DISL:PPTA:1,2019-08-10T02:00:00Z,30.2791,-87.5561,1.19,0.0,11111222 
DISL,ioos:station:DISL:PPTA:1,2019-08-10T03:00:00Z,30.2791,-87.5561,1.197,0.0,11111222 
DISL,ioos:station:DISL:PPTA:1,2019-08-10T04:00:00Z,30.2791,-87.5561,1.204,0.0,11111222 
DISL,ioos:station:DISL:PPTA:1,2019-08-10T05:00:00Z,30.2791,-87.5561,1.26,0.0,11111222 
DISL,ioos:station:DISL:PPTA:1,2019-08-10T06:00:00Z,30.2791,-87.5561,1.305,0.0,11111222 
DISL,ioos:station:DISL:PPTA:1,2019-08-10T07:00:00Z,30.2791,-87.5561,1.342,0.0,11111222 
DISL,ioos:station:DISL:PPTA:1,2019-08-10T08:00:00Z,30.2791,-87.5561,1.363,0.0,11111222 
DISL,ioos:station:DISL:PPTA:1,2019-08-10T09:00:00Z,30.2791,-87.5561,1.4,0.0,11111222 
DISL,ioos:station:DISL:PPTA:1,2019-08-10T10:00:00Z,30.2791,-87.5561,1.411,0.0,11111222 
DISL,ioos:station:DISL:PPTA:1,2019-08-10T11:00:00Z,30.2791,-87.5561,1.44,0.0,11111222 
DISL,ioos:station:DISL:PPTA:1,2019-08-10T12:00:00Z,30.2791,-87.5561,1.435,0.0,11111222 
DISL,ioos:station:DISL:PPTA:1,2019-08-10T13:00:00Z,30.2791,-87.5561,1.436,0.0,11111222 
DISL,ioos:station:DISL:PPTA:1,2019-08-10T14:00:00Z,30.2791,-87.5561,1.409,0.0,11111222 
DISL,ioos:station:DISL:PPTA:1,2019-08-10T15:00:00Z,30.2791,-87.5561,1.382,0.0,11111222 
DISL,ioos:station:DISL:PPTA:1,2019-08-10T16:00:00Z,30.2791,-87.5561,1.355,0.0,11111222 
DISL,ioos:station:DISL:PPTA:1,2019-08-10T18:00:00Z,30.2791,-87.5561,1.295,0.0,11111222 
DISL,ioos:station:DISL:PPTA:1,2019-08-10T19:00:00Z,30.2791,-87.5561,1.239,0.0,11111222 
DISL,ioos:station:DISL:PPTA:1,2019-08-10T20:00:00Z,30.2791,-87.5561,1.218,0.0,11111222 
DISL,ioos:station:DISL:PPTA:1,2019-08-10T21:00:00Z,30.2791,-87.5561,1.167,0.0,11111222 
DISL,ioos:station:DISL:PPTA:1,2019-08-10T22:00:00Z,30.2791,-87.5561,1.164,0.0,11111222 
DISL,ioos:station:DISL:PPTA:1,2019-08-10T23:00:00Z,30.2791,-87.5561,1.13,0.0,11111222 
DISL,ioos:station:DISL:PPTA:1,2019-08-11T00:00:00Z,30.2791,-87.5561,1.138,0.0,11111222 
DISL,ioos:station:DISL:PPTA:1,2019-08-11T01:00:00Z,30.2791,-87.5561,1.153,0.0,11111222 
DISL,ioos:station:DISL:PPTA:1,2019-08-11T02:00:00Z,30.2791,-87.5561,1.165,0.0,11111222 
DISL,ioos:station:DISL:PPTA:1,2019-08-11T03:00:00Z,30.2791,-87.5561,1.154,0.0,11111222 
DISL,ioos:station:DISL:PPTA:1,2019-08-11T04:00:00Z,30.2791,-87.5561,1.205,0.0,11111222 
DISL,ioos:station:DISL:PPTA:1,2019-08-11T05:00:00Z,30.2791,-87.5561,1.222,0.0,11111222 
DISL,ioos:station:DISL:PPTA:1,2019-08-11T06:00:00Z,30.2791,-87.5561,1.259,0.0,11111222 
DISL,ioos:station:DISL:PPTA:1,2019-08-11T07:00:00Z,30.2791,-87.5561,1.275,0.0,11111222 
DISL,ioos:station:DISL:PPTA:1,2019-08-11T08:00:00Z,30.2791,-87.5561,1.302,0.0,11111222 
DISL,ioos:station:DISL:PPTA:1,2019-08-11T09:00:00Z,30.2791,-87.5561,1.353,0.0,11111222 
DISL,ioos:station:DISL:PPTA:1,2019-08-11T10:00:00Z,30.2791,-87.5561,1.389,0.0,11111222 
DISL,ioos:station:DISL:PPTA:1,2019-08-11T11:00:00Z,30.2791,-87.5561,1.411,0.0,11111222 
DISL,ioos:station:DISL:PPTA:1,2019-08-11T12:00:00Z,30.2791,-87.5561,1.409,0.0,11111222 
DISL,ioos:station:DISL:PPTA:1,2019-08-11T13:00:00Z,30.2791,-87.5561,1.414,0.0,11111222 
DISL,ioos:station:DISL:PPTA:1,2019-08-11T14:00:00Z,30.2791,-87.5561,1.423,0.0,11111222 
DISL,ioos:station:DISL:PPTA:1,2019-08-11T15:00:00Z,30.2791,-87.5561,1.388,0.0,11111222 
DISL,ioos:station:DISL:PPTA:1,2019-08-11T16:00:00Z,30.2791,-87.5561,1.342,0.0,11111222 
DISL,ioos:station:DISL:PPTA:1,2019-08-11T17:00:00Z,30.2791,-87.5561,1.306,0.0,11111222 
DISL,ioos:station:DISL:PPTA:1,2019-08-11T18:00:00Z,30.2791,-87.5561,1.279,0.0,11111222 
DISL,ioos:station:DISL:PPTA:1,2019-08-11T19:00:00Z,30.2791,-87.5561,1.239,0.0,11111222 
DISL,ioos:station:DISL:PPTA:1,2019-08-11T20:00:00Z,30.2791,-87.5561,1.178,0.0,11111222 
DISL,ioos:station:DISL:PPTA:1,2019-08-11T21:00:00Z,30.2791,-87.5561,1.129,0.0,11111222 
DISL,ioos:station:DISL:PPTA:1,2019-08-11T22:00:00Z,30.2791,-87.5561,1.073,0.0,11111222 
DISL,ioos:station:DISL:PPTA:1,2019-08-11T23:00:00Z,30.2791,-87.5561,1.126,0.0,11111222 
DISL,ioos:station:DISL:PPTA:1,2019-08-12T00:00:00Z,30.2791,-87.5561,1.106,0.0,11111222 
DISL,ioos:station:DISL:PPTA:1,2019-08-12T01:00:00Z,30.2791,-87.5561,1.105,0.0,11111222 
DISL,ioos:station:DISL:PPTA:1,2019-08-12T02:00:00Z,30.2791,-87.5561,1.118,0.0,11111222 
DISL,ioos:station:DISL:PPTA:1,2019-08-12T03:00:00Z,30.2791,-87.5561,1.119,0.0,11111222 
DISL,ioos:station:DISL:PPTA:1,2019-08-12T04:00:00Z,30.2791,-87.5561,1.15,0.0,11111222 
DISL,ioos:station:DISL:PPTA:1,2019-08-12T05:00:00Z,30.2791,-87.5561,1.145,0.0,11111222 
DISL,ioos:station:DISL:PPTA:1,2019-08-12T06:00:00Z,30.2791,-87.5561,1.174,0.0,11111222 
DISL,ioos:station:DISL:PPTA:1,2019-08-12T07:00:00Z,30.2791,-87.5561,1.223,0.0,11111222 